Location: Caltech
(34.1382°N, 118.1253°W)
Time: 00:37:15
(UTC-08:00)

Iridium 12 - Visible Passes

Search period start: 19 December 2014 00:00
Search period end: 29 December 2014 00:00
Orbit: 776 x 779 km, 86.4° (Epoch: 18 December)

Date Brightness Start Highest point End Pass type
(mag) Time Alt. Az. Time Alt. Az. Time Alt. Az.
19 Dec 7.6 05:41:08 10° NNE 05:45:38 29° E 05:50:06 10° SE visible
19 Dec 5.4 18:33:16 10° S 18:38:25 69° E 18:40:42 34° NNE visible
19 Dec 8.5 20:18:35 10° W 20:19:36 11° WNW 20:20:38 10° WNW visible
20 Dec 8.3 05:08:54 10° NE 05:11:52 15° ENE 05:14:49 10° ESE visible
20 Dec 6.1 18:00:21 10° SSE 18:05:01 35° E 18:08:34 16° NNE visible
20 Dec 7.8 19:41:53 10° SW 19:45:46 21° W 19:49:08 12° NW visible
21 Dec 5.6 06:14:09 10° N 06:19:22 85° E 06:24:34 10° S visible
21 Dec 6.8 17:28:16 10° ESE 17:31:44 18° E 17:35:13 10° NE visible
21 Dec 6.7 19:07:12 10° SSW 19:12:04 40° W 19:16:57 10° NNW visible
22 Dec 6.8 05:40:51 10° NNE 05:45:48 43° E 05:50:43 10° SSE visible
22 Dec 5.6 18:33:17 10° S 18:38:29 80° W 18:43:42 10° N visible
23 Dec 7.9 05:08:04 10° NNE 05:12:06 23° E 05:16:08 10° SE visible
23 Dec 5.6 17:59:59 10° SSE 18:05:01 52° E 18:10:04 10° NNE visible
23 Dec 8.3 19:43:19 10° WSW 19:46:01 14° WNW 19:48:44 10° NW visible
24 Dec 8.5 04:36:38 10° ENE 04:38:17 11° ENE 04:39:56 10° E visible
24 Dec 5.5 06:14:16 10° N 06:19:25 65° W 06:24:33 10° S visible
24 Dec 6.4 17:27:21 10° SE 17:31:39 27° E 17:35:58 10° NNE visible
24 Dec 7.5 19:07:52 10° SW 19:12:14 27° W 19:16:38 10° NNW visible
25 Dec 6.0 05:40:44 10° N 05:45:55 65° E 05:51:04 10° S visible
25 Dec 6.3 18:33:31 10° SSW 18:38:35 53° W 18:43:40 10° N visible
26 Dec 7.2 05:07:37 10° NNE 05:12:18 33° E 05:16:57 10° SSE visible
26 Dec 5.4 17:59:51 10° S 18:05:02 79° E 18:10:15 10° N visible
27 Dec 8.2 04:35:08 10° NE 04:38:33 17° ENE 04:41:57 10° ESE visible
27 Dec 5.9 06:14:32 10° NNW 06:19:26 43° W 06:24:18 10° SSW visible
27 Dec 6.0 17:26:48 10° SSE 17:31:37 40° E 17:36:27 10° NNE visible
27 Dec 8.1 19:08:53 10° WSW 19:12:27 19° W 19:16:01 10° NW visible
28 Dec 5.5 05:40:46 10° N 05:45:59 84° W 05:51:11 10° S visible
28 Dec 7.1 18:33:59 10° SSW 18:38:43 35° W 18:43:28 10° NNW visible
